Starlink 2433

operational
NORAD ID: 47841 Int'l Des: 2021-018 Owner: SPXS Country: US Constellation: starlink
LEOCIRCULARSTARLINK_TYPE

Über Starlink 2433

Beschreibung wird geladen...

Live-Position

3D-Globus wird geladen...

Nächste Überflüge

Höhenverlauf

Altitude vs Time

uPlot chart will show altitude changes over time

Zweizeiliger Elementsatz

1 47841U 21018BG 25354.05687257 .00002199 00000-0 16643-3 0 9999
2 47841 53.0534 229.1028 0001811 96.4562 263.6634 15.06408266264878
Epoch: 20. Dez. 2025 • Age: 15 hours

Aktueller Status

Höhe 549.1 km
Geschwindigkeit 7.59 km/s
Subsatellitenpunkt 37.23°N, 38.06°E
Startdatum 11. März 2021
Alter 4.7 years
Typ internet

Technische Details

Klassifizierung Payload
Masse 260.00 kg
Trockenmasse 248.00 kg
Gesamtmasse 260.00 kg
Länge 0.20 m
Durchmesser 2.80 m
Spannweite 9.00 m
Form Box + pan
Hersteller SPXS
Bus-Typ Starlink
Phasenstatus In Orbit
Besitzer/Staat SPXS/US

Große Konstellationen

Loading constellations...